Time,TemperatureF,DewpointF,PressureIn,WindDirection,WindDirectionDegrees,WindSpeedMPH,WindSpeedGustMPH,Humidity,HourlyPrecipIn,Conditions,Clouds,dailyrainin,SoftwareType,DateUTC
2013-02-17 00:11:00,28.2,18.0,29.71,NNW,329,2.0,15.0,66,0.00,,,0.00,weatherlink.com 1.10,2013-02-17 05:11:00,
2013-02-17 00:26:00,28.2,18.0,29.69,NW,318,7.0,12.0,65,0.00,,,0.00,weatherlink.com 1.10,2013-02-17 05:26:00,
2013-02-17 00:41:00,28.3,17.0,29.70,WNW,299,8.0,9.0,64,0.00,,,0.00,weatherlink.com 1.10,2013-02-17 05:41:00,
2013-02-17 00:56:00,28.4,17.0,29.71,NNE,16,3.0,9.0,63,0.00,,,0.00,weatherlink.com 1.10,2013-02-17 05:56:00,
2013-02-17 01:11:00,28.3,16.0,29.70,NW,325,5.0,10.0,60,0.00,,,0.00,weatherlink.com 1.10,2013-02-17 06:11:00,
2013-02-17 01:27:00,28.1,16.0,29.70,NW,304,4.0,13.0,61,0.00,,,0.00,weatherlink.com 1.10,2013-02-17 06:27:00,
2013-02-17 01:42:00,28.0,15.0,29.70,West,274,2.0,12.0,59,0.00,,,0.00,weatherlink.com 1.10,2013-02-17 06:42:00,
2013-02-17 01:57:00,27.6,14.0,29.68,North,349,4.0,13.0,57,0.00,,,0.00,weatherlink.com 1.10,2013-02-17 06:57:00,
2013-02-17 02:12:00,27.2,13.0,29.67,WNW,302,8.0,11.0,55,0.00,,,0.00,weatherlink.com 1.10,2013-02-17 07:12:00,
2013-02-17 02:27:00,26.8,12.0,29.68,NW,304,4.0,11.0,55,0.00,,,0.00,weatherlink.com 1.10,2013-02-17 07:27:00,
2013-02-17 02:42:00,26.6,12.0,29.68,WNW,299,6.0,12.0,54,0.00,,,0.00,weatherlink.com 1.10,2013-02-17 07:42:00,
2013-02-17 02:57:00,26.4,11.0,29.68,NW,310,5.0,11.0,53,0.00,,,0.00,weatherlink.com 1.10,2013-02-17 07:57:00,
2013-02-17 03:12:00,26.2,10.0,29.67,NW,306,5.0,9.0,51,0.00,,,0.00,weatherlink.com 1.10,2013-02-17 08:12:00,
2013-02-17 03:27:00,25.9,9.0,29.66,WNW,299,5.0,11.0,50,0.00,,,0.00,weatherlink.com 1.10,2013-02-17 08:27:00,
2013-02-17 03:42:00,25.6,9.0,29.66,NNW,334,6.0,15.0,49,0.00,,,0.00,weatherlink.com 1.10,2013-02-17 08:42:00,
2013-02-17 03:57:00,25.3,8.0,29.66,WNW,303,4.0,13.0,48,0.00,,,0.00,weatherlink.com 1.10,2013-02-17 08:57:00,
2013-02-17 04:12:00,25.0,7.0,29.66,WNW,300,4.0,14.0,46,0.00,,,0.00,weatherlink.com 1.10,2013-02-17 09:12:00,
2013-02-17 04:27:00,24.6,7.0,29.66,WNW,282,6.0,12.0,48,0.00,,,0.00,weatherlink.com 1.10,2013-02-17 09:27:00,
2013-02-17 04:42:00,24.3,7.0,29.65,NNW,347,5.0,14.0,48,0.00,,,0.00,weatherlink.com 1.10,2013-02-17 09:42:00,
2013-02-17 04:57:00,23.9,7.0,29.65,WSW,245,2.0,14.0,49,0.00,,,0.00,weatherlink.com 1.10,2013-02-17 09:57:00,
2013-02-17 05:12:00,23.6,8.0,29.64,NW,311,7.0,15.0,51,0.00,,,0.00,weatherlink.com 1.10,2013-02-17 10:12:00,
2013-02-17 05:27:00,23.2,8.0,29.64,NW,320,3.0,10.0,53,0.00,,,0.00,weatherlink.com 1.10,2013-02-17 10:27:00,
2013-02-17 05:42:00,22.8,7.0,29.62,NW,309,5.0,15.0,52,0.00,,,0.00,weatherlink.com 1.10,2013-02-17 10:42:00,
2013-02-17 05:57:00,22.5,7.0,29.62,West,278,5.0,14.0,52,0.00,,,0.00,weatherlink.com 1.10,2013-02-17 10:57:00,
2013-02-17 06:12:00,22.3,8.0,29.63,NNW,339,6.0,12.0,54,0.00,,,0.00,weatherlink.com 1.10,2013-02-17 11:12:00,
2013-02-17 06:28:00,22.1,7.0,29.63,NNW,336,10.0,13.0,52,0.00,,,0.00,weatherlink.com 1.10,2013-02-17 11:28:00,
2013-02-17 06:42:00,21.8,6.0,29.61,West,280,8.0,17.0,51,0.00,,,0.00,weatherlink.com 1.10,2013-02-17 11:42:00,
2013-02-17 06:57:00,21.7,6.0,29.61,SW,224,8.0,11.0,51,0.00,,,0.00,weatherlink.com 1.10,2013-02-17 11:57:00,
2013-02-17 07:12:00,21.6,6.0,29.62,NW,322,8.0,17.0,51,0.00,,,0.00,weatherlink.com 1.10,2013-02-17 12:12:00,
2013-02-17 07:27:00,21.4,7.0,29.61,WNW,290,7.0,15.0,54,0.00,,,0.00,weatherlink.com 1.10,2013-02-17 12:27:00,
2013-02-17 07:43:00,21.2,7.0,29.62,West,281,6.0,13.0,55,0.00,,,0.00,weatherlink.com 1.10,2013-02-17 12:43:00,
2013-02-17 07:58:00,21.1,7.0,29.62,WNW,293,8.0,20.0,55,0.00,,,0.00,weatherlink.com 1.10,2013-02-17 12:58:00,
2013-02-17 08:13:00,21.0,7.0,29.62,NW,307,5.0,16.0,54,0.00,,,0.00,weatherlink.com 1.10,2013-02-17 13:13:00,
2013-02-17 08:28:00,21.0,7.0,29.62,WNW,294,4.0,14.0,56,0.00,,,0.00,weatherlink.com 1.10,2013-02-17 13:28:00,
2013-02-17 08:43:00,21.2,7.0,29.61,WNW,300,7.0,12.0,54,0.00,,,0.00,weatherlink.com 1.10,2013-02-17 13:43:00,
2013-02-17 08:58:00,21.2,6.0,29.60,NW,305,4.0,16.0,53,0.00,,,0.00,weatherlink.com 1.10,2013-02-17 13:58:00,
2013-02-17 09:13:00,21.2,6.0,29.59,NW,310,11.0,19.0,53,0.00,,,0.00,weatherlink.com 1.10,2013-02-17 14:13:00,
2013-02-17 09:28:00,21.5,7.0,29.59,NW,304,4.0,14.0,53,0.00,,,0.00,weatherlink.com 1.10,2013-02-17 14:28:00,
2013-02-17 09:43:00,21.7,7.0,29.60,NW,318,5.0,15.0,53,0.00,,,0.00,weatherlink.com 1.10,2013-02-17 14:43:00,
2013-02-17 09:58:00,22.1,7.0,29.60,NW,306,14.0,17.0,53,0.00,,,0.00,weatherlink.com 1.10,2013-02-17 14:58:00,
2013-02-17 10:13:00,22.3,6.0,29.60,NW,311,2.0,23.0,50,0.00,,,0.00,weatherlink.com 1.10,2013-02-17 15:13:00,
2013-02-17 10:28:00,22.8,6.0,29.61,WNW,288,6.0,14.0,49,0.00,,,0.00,weatherlink.com 1.10,2013-02-17 15:28:00,
2013-02-17 10:44:00,22.9,6.0,29.61,NW,309,3.0,19.0,48,0.00,,,0.00,weatherlink.com 1.10,2013-02-17 15:44:00,
2013-02-17 10:58:00,23.2,5.0,29.61,WNW,290,8.0,17.0,46,0.00,,,0.00,weatherlink.com 1.10,2013-02-17 15:58:00,
2013-02-17 11:13:00,23.2,4.0,29.61,NW,325,14.0,20.0,44,0.00,,,0.00,weatherlink.com 1.10,2013-02-17 16:13:00,
2013-02-17 11:28:00,23.6,3.0,29.61,WSW,250,9.0,25.0,42,0.00,,,0.00,weatherlink.com 1.10,2013-02-17 16:28:00,
2013-02-17 11:43:00,24.1,3.0,29.61,WNW,293,9.0,28.0,41,0.00,,,0.00,weatherlink.com 1.10,2013-02-17 16:43:00,
2013-02-17 11:58:00,24.2,4.0,29.61,NW,304,13.0,17.0,41,0.00,,,0.00,weatherlink.com 1.10,2013-02-17 16:58:00,
2013-02-17 12:13:00,24.7,4.0,29.61,WNW,285,6.0,16.0,41,0.00,,,0.00,weatherlink.com 1.10,2013-02-17 17:13:00,
2013-02-17 12:28:00,25.5,4.0,29.61,WNW,302,4.0,25.0,40,0.00,,,0.00,weatherlink.com 1.10,2013-02-17 17:28:00,
2013-02-17 12:43:00,25.9,5.0,29.61,WNW,293,6.0,16.0,40,0.00,,,0.00,weatherlink.com 1.10,2013-02-17 17:43:00,
2013-02-17 12:59:00,26.2,4.0,29.61,WNW,291,3.0,12.0,38,0.00,,,0.00,weatherlink.com 1.10,2013-02-17 17:59:00,
2013-02-17 13:13:00,26.5,3.0,29.61,WNW,293,7.0,17.0,37,0.00,,,0.00,weatherlink.com 1.10,2013-02-17 18:13:00,
2013-02-17 13:28:00,27.0,3.0,29.62,West,262,5.0,28.0,35,0.00,,,0.00,weatherlink.com 1.10,2013-02-17 18:28:00,
2013-02-17 13:43:00,27.5,4.0,29.62,WNW,290,5.0,23.0,36,0.00,,,0.00,weatherlink.com 1.10,2013-02-17 18:43:00,
2013-02-17 13:58:00,27.9,2.0,29.62,NW,305,13.0,27.0,33,0.00,,,0.00,weatherlink.com 1.10,2013-02-17 18:58:00,
2013-02-17 14:13:00,27.7,3.0,29.62,West,281,5.0,22.0,34,0.00,,,0.00,weatherlink.com 1.10,2013-02-17 19:13:00,
2013-02-17 14:28:00,27.8,1.0,29.63,WNW,296,16.0,24.0,32,0.00,,,0.00,weatherlink.com 1.10,2013-02-17 19:28:00,
2013-02-17 14:43:00,27.5,3.0,29.63,NNE,12,12.0,21.0,35,0.00,,,0.00,weatherlink.com 1.10,2013-02-17 19:43:00,
2013-02-17 14:58:00,27.6,2.0,29.63,NNE,15,13.0,19.0,33,0.00,,,0.00,weatherlink.com 1.10,2013-02-17 19:58:00,
2013-02-17 15:13:00,27.7,3.0,29.64,WSW,248,11.0,13.0,35,0.00,,,0.00,weatherlink.com 1.10,2013-02-17 20:13:00,
2013-02-17 15:28:00,27.4,4.0,29.64,East,89,3.0,14.0,37,0.00,,,0.00,weatherlink.com 1.10,2013-02-17 20:28:00,
2013-02-17 15:43:00,26.9,4.0,29.65,WNW,293,10.0,13.0,37,0.00,,,0.00,weatherlink.com 1.10,2013-02-17 20:43:00,
2013-02-17 15:58:00,26.5,3.0,29.66,West,275,7.0,22.0,36,0.00,,,0.00,weatherlink.com 1.10,2013-02-17 20:58:00,
2013-02-17 16:13:00,25.9,4.0,29.66,WNW,283,4.0,16.0,39,0.00,,,0.00,weatherlink.com 1.10,2013-02-17 21:13:00,
2013-02-17 16:28:00,25.5,3.0,29.67,WNW,285,8.0,19.0,38,0.00,,,0.00,weatherlink.com 1.10,2013-02-17 21:28:00,
2013-02-17 16:43:00,25.1,4.0,29.68,WNW,288,3.0,13.0,40,0.00,,,0.00,weatherlink.com 1.10,2013-02-17 21:43:00,
2013-02-17 16:58:00,24.6,3.0,29.69,WNW,293,5.0,20.0,40,0.00,,,0.00,weatherlink.com 1.10,2013-02-17 21:58:00,
2013-02-17 17:13:00,24.1,3.0,29.70,WNW,299,8.0,23.0,40,0.00,,,0.00,weatherlink.com 1.10,2013-02-17 22:13:00,
2013-02-17 17:28:00,23.6,3.0,29.71,WNW,291,6.0,18.0,41,0.00,,,0.00,weatherlink.com 1.10,2013-02-17 22:28:00,
2013-02-17 17:43:00,23.1,3.0,29.73,WNW,288,3.0,17.0,41,0.00,,,0.00,weatherlink.com 1.10,2013-02-17 22:43:00,
2013-02-17 17:58:00,22.6,3.0,29.74,WNW,300,5.0,19.0,43,0.00,,,0.00,weatherlink.com 1.10,2013-02-17 22:58:00,
2013-02-17 18:13:00,21.9,2.0,29.75,WSW,240,5.0,17.0,43,0.00,,,0.00,weatherlink.com 1.10,2013-02-17 23:13:00,
2013-02-17 18:28:00,21.2,2.0,29.76,WNW,287,5.0,11.0,44,0.00,,,0.00,weatherlink.com 1.10,2013-02-17 23:28:00,
2013-02-17 18:43:00,20.8,2.0,29.77,WNW,283,3.0,15.0,45,0.00,,,0.00,weatherlink.com 1.10,2013-02-17 23:43:00,
2013-02-17 18:58:00,20.4,2.0,29.79,NW,325,7.0,16.0,44,0.00,,,0.00,weatherlink.com 1.10,2013-02-17 23:58:00,
2013-02-17 19:14:00,19.8,2.0,29.79,NW,319,15.0,16.0,47,0.00,,,0.00,weatherlink.com 1.10,2013-02-18 00:14:00,
2013-02-17 19:29:00,19.4,2.0,29.79,NW,316,7.0,24.0,46,0.00,,,0.00,weatherlink.com 1.10,2013-02-18 00:29:00,
2013-02-17 19:44:00,18.9,2.0,29.80,WNW,300,9.0,17.0,47,0.00,,,0.00,weatherlink.com 1.10,2013-02-18 00:44:00,
2013-02-17 19:59:00,18.5,2.0,29.80,WNW,302,4.0,14.0,48,0.00,,,0.00,weatherlink.com 1.10,2013-02-18 00:59:00,
2013-02-17 20:14:00,18.1,2.0,29.80,WNW,300,5.0,22.0,49,0.00,,,0.00,weatherlink.com 1.10,2013-02-18 01:14:00,
2013-02-17 20:29:00,17.7,2.0,29.81,West,259,6.0,17.0,50,0.00,,,0.00,weatherlink.com 1.10,2013-02-18 01:29:00,
2013-02-17 20:44:00,17.5,2.0,29.82,NNW,328,8.0,16.0,50,0.00,,,0.00,weatherlink.com 1.10,2013-02-18 01:44:00,
2013-02-17 20:59:00,17.3,2.0,29.83,WNW,295,7.0,16.0,51,0.00,,,0.00,weatherlink.com 1.10,2013-02-18 01:59:00,
2013-02-17 21:14:00,16.9,2.0,29.83,NW,314,5.0,18.0,51,0.00,,,0.00,weatherlink.com 1.10,2013-02-18 02:14:00,
2013-02-17 21:29:00,16.7,2.0,29.84,WNW,290,4.0,24.0,52,0.00,,,0.00,weatherlink.com 1.10,2013-02-18 02:29:00,
2013-02-17 21:44:00,16.4,2.0,29.84,West,263,7.0,18.0,53,0.00,,,0.00,weatherlink.com 1.10,2013-02-18 02:44:00,
2013-02-17 21:59:00,16.1,2.0,29.85,WNW,290,7.0,16.0,54,0.00,,,0.00,weatherlink.com 1.10,2013-02-18 02:59:00,
2013-02-17 22:14:00,15.8,3.0,29.85,NW,308,2.0,12.0,56,0.00,,,0.00,weatherlink.com 1.10,2013-02-18 03:14:00,
2013-02-17 22:29:00,15.6,2.0,29.86,WNW,290,6.0,11.0,56,0.00,,,0.00,weatherlink.com 1.10,2013-02-18 03:29:00,
2013-02-17 22:44:00,15.4,2.0,29.86,WNW,288,6.0,14.0,55,0.00,,,0.00,weatherlink.com 1.10,2013-02-18 03:44:00,
2013-02-17 22:59:00,15.2,2.0,29.87,WSW,238,6.0,12.0,56,0.00,,,0.00,weatherlink.com 1.10,2013-02-18 03:59:00,
2013-02-17 23:14:00,15.2,2.0,29.87,SSW,205,4.0,14.0,56,0.00,,,0.00,weatherlink.com 1.10,2013-02-18 04:14:00,
2013-02-17 23:29:00,15.3,2.0,29.88,WNW,289,5.0,19.0,56,0.00,,,0.00,weatherlink.com 1.10,2013-02-18 04:29:00,
2013-02-17 23:44:00,15.2,2.0,29.89,NW,305,7.0,11.0,57,0.00,,,0.00,weatherlink.com 1.10,2013-02-18 04:44:00,
2013-02-17 23:59:00,15.1,2.0,29.89,WNW,287,5.0,15.0,57,0.00,,,0.00,weatherlink.com 1.10,2013-02-18 04:59:00,